Red Bluff, CA

12:58 AM PST on December 10, 2019 (GMT -0800)
Red Bluff Municipal

Weather History for KRBL - November, 2019

Change the Weather History Date:

Tuesday, November 12, 2019

  Actual Average Record
Temperature  
Mean Temperature 64 °F -  
Max Temperature 79 °F 63 °F 82 °F (1936)
Min Temperature 48 °F 42 °F 25 °F (1938)
Degree Days  
Heating Degree Days 2    
Growing Degree Days 14 (Base 50)    
Moisture  
Dew Point 42 °F    
Average Humidity 51    
Maximum Humidity 74    
Minimum Humidity 16    
Precipitation  
Precipitation 0.00 in - - ()
Sea Level Pressure  
Sea Level Pressure 30.06 in    
Wind  
Wind Speed 4 mph (NW)    
Max Wind Speed 8 mph    
Max Gust Speed -    
Visibility 10 miles    
Events      
Averages and records for this station are not official NWS values.
T = Trace of Precipitation, MM = Missing Value Source: NWS Daily Summary

Daily Weather History Graph

Daily Weather History Graph

Search for Another Location

Airport or City:

Astronomy

Nov. 12, 2019 Rise Set
Actual Time 6:50 AM PST 4:54 PM PST
Civil Twilight 6:22 AM PST 5:23 PM PST
Nautical Twilight 5:49 AM PST 5:56 PM PST
Astronomical Twilight 5:17 AM PST 6:28 PM PST
Moon 5:25 PM PST (11/12) 6:47 AM PST (11/12)
Length of Visible Light 11h 01m
Length of Day
10h 04m
Full, 100% of the Moon is Illuminated
Nov 12
Full
Nov 19
Last Quarter
Nov 26
New
Dec 3
First Quarter
Dec 11
Full

Hourly Weather History & Observations

Time (PST) Temp. Dew Point Humidity Pressure Visibility Wind Dir Wind Speed Gust Speed Precip Events Conditions
12:54 AM 51.1 °F 42.1 °F 71% 30.08 in 10.0 mi NNW 3.5 mph - N/A   Clear
1:54 AM 50.0 °F 42.1 °F 74% 30.08 in 10.0 mi WNW 5.8 mph - N/A   Clear
2:54 AM 50.0 °F 42.1 °F 74% 30.07 in 10.0 mi NW 5.8 mph - N/A   Clear
3:54 AM 50.0 °F 42.1 °F 74% 30.07 in 10.0 mi NW 4.6 mph - N/A   Clear
4:54 AM 50.0 °F 42.1 °F 74% 30.08 in 10.0 mi NW 5.8 mph - N/A   Clear
5:54 AM 51.1 °F 42.1 °F 71% 30.08 in 10.0 mi NW 5.8 mph - N/A   Clear
6:54 AM 50.0 °F 42.1 °F 74% 30.09 in 10.0 mi NW 5.8 mph - N/A   Clear
7:54 AM 53.1 °F 43.0 °F 69% 30.12 in 10.0 mi NW 3.5 mph - N/A   Clear
8:54 AM 60.1 °F 44.1 °F 55% 30.13 in 10.0 mi NNW 4.6 mph - N/A   Clear
9:54 AM 63.0 °F 44.1 °F 50% 30.13 in 10.0 mi North 5.8 mph - N/A   Clear
10:54 AM 69.1 °F 43.0 °F 39% 30.12 in 10.0 mi North 6.9 mph - N/A   Clear
11:54 AM 72.0 °F 42.1 °F 34% 30.09 in 10.0 mi Calm Calm - N/A   Clear
12:54 PM 75.0 °F 39.9 °F 28% 30.07 in 10.0 mi Calm Calm - N/A   Clear
1:54 PM 77.0 °F 39.9 °F 26% 30.04 in 10.0 mi Calm Calm - N/A   Clear
2:54 PM 77.0 °F 39.0 °F 25% 30.03 in 10.0 mi Calm Calm - N/A   Clear
3:54 PM 77.0 °F 39.9 °F 26% 30.01 in 10.0 mi ESE 5.8 mph - N/A   Clear
4:54 PM 71.1 °F 39.9 °F 32% 30.01 in 10.0 mi SSE 3.5 mph - N/A   Clear
5:54 PM 66.0 °F 41.0 °F 40% 30.01 in 10.0 mi Calm Calm - N/A   Clear
6:54 PM 62.1 °F 42.1 °F 48% 30.02 in 10.0 mi WNW 4.6 mph - N/A   Clear
7:54 PM 60.1 °F 41.0 °F 49% 30.02 in 10.0 mi WNW 5.8 mph - N/A   Clear
8:54 PM 59.0 °F 41.0 °F 51% 30.02 in 10.0 mi WNW 8.1 mph - N/A   Clear
9:54 PM 53.1 °F 39.9 °F 61% 30.03 in 10.0 mi NNW 3.5 mph - N/A   Clear
10:54 PM 55.9 °F 42.1 °F 60% 30.02 in 10.0 mi NW 8.1 mph - N/A   Clear
11:54 PM 55.0 °F 42.1 °F 62% 30.01 in 10.0 mi NNW 8.1 mph - N/A   Clear